Location: Gollag?dem
(16.8053°N, 80.8024°E)
Time: 13:50:30
(UTC+00:00)

Meteor 2-6 Rocket - Pass Details

Date: 13 August 2020
Orbit: 806 x 914 km, 81.3° (Epoch: 24 September)

Event Time Altitude Azimuth Distance (km) Brightness Sun altitude
Rises 14:15:20 0° 1° (N) 3,411 7.6 -17.3°
Reaches altitude 10° 14:17:47 10° 5° (N) 2,491 6.8 -17.8°
Maximum altitude 14:23:20 57° 84° (E) 1,021 4.3 -19.1°
Enters shadow 14:26:30 26° 152° (SSE) 1,658 5.3 -19.8°
